Погода в Норске

Погода в Норске : погода сейчас, прогноз погоды и архив. Всё, что Вы хотите узнать о погоде в Норске!

Хотите узнать прогноз погоды в Норске? Тогда Вам сюда: Погода в Норске

Поиск расширенной информации на нашем сайте:

Другие новости

Новости СМИ2

Главная страница сайта

Новости сайта

03.07.2017

Напоминаем, что на нашем специализированном сайте Метеоцентр.Азия вы можете получить высокодетализированные автоматические прогнозы погоды по пунктам России, СНГ и мира в авиационном формате (включающие направление и скорость ветра, видимость, явления погоды, количество и форму облачности, нижнюю и верхнюю границу облачности).


Погода в Норске - сегодня

Время (UTC), дата Ветер
(°,м/с) 
Видим.   Явления Облачность Т
(°С)
Тd
(°С)
f(%) Тe
(°С)
Pmin
(гПа)
dP
(гПа)
Po
(мм)
O2
(г/м3)
Тmin Tmax R s Состояние
почвы
00 18.06.18 020 (С) 20000 м  {ливн. осадки}  6/4 1000 м средняя 
[Cu hum|Ac trans]
+13 +8 72 +13  1002  733  281  +7.7    0.4    влажная 
03 18.06.18 090 (В) 20000 м    8/8 600 м кучево-дожд. 
[Cb cap]
+15.4 +9.5 68 +17  1002  0.1  733  278           
06 18.06.18 060 (СВ) 20000 м    9/9 600 м кучево-дожд. 
[Cb cap]
+16.9 +9.3 61 +19  1001.3  -0.5  733  276           
09 18.06.18 080 (В) 20000 м    10/10 600 м кучево-дожд. 
[Cb cap]
+14.9 +9.3 69 +16  1000.8  -0.7  732  278           
15 18.06.18 020 (С) 20000 м    8/4 600 м кучево-дожд., средняя, верхняя 
[Cb cap|Ac trans|Ci fib]
+9.8 +6.5 80 +10  1000  -1.1  732  283           
18 18.06.18 010 (С) 20000 м    8/5 600 м кучево-дожд., средняя 
[Cb cap|Ac trans]
+7.2 +4.3 82 +7  998.6  -1.7  730  286           
21 18.06.18 010 (С) 20000 м    9/5 600 м кучево-дожд., средняя 
[Cb cap|Ac trans]
+7.4 +4.4 81 +7  997.5  -1.1  729  285           
00 19.06.18 010 (С) 20000 м    10/10 600 м кучево-дожд. 
[Cb cap]
+8.5 +6.3 86 +9  997.6  0.3  730  284  +7        влажная 
03 19.06.18 360 (С) 20000 м  {ливн. осадки}  10/10 1000 м 
[Sc]
+11.6 +5.7 67 +11  997.9  0.6  730  281           
06 19.06.18 010 (С) 20000 м  {ливн. осадки}  10/10 1000 м 
[Sc]
+11.7 +6.4 70 +12  999.2  1.3  731  281           
09 19.06.18 360 (С) 20000 м    10/10 1000 м 
[Cu Sc]
+10.9 +6.4 74 +11  1000.7  1.4  732  283           
15 19.06.18 030 (СВ) 20000 м    6/5 1000 м верхняя 
[Sc|Ci fib]
+8.7 +3.9 72 +10  1002  0.2  733  286           
18 19.06.18 330 (СЗ) 20000 м    8/6 1000 м верхняя 
[Sc|Ci fib]
+7.9 +4.8 81 +9  1001.9  -0.2  733  286           
21 19.06.18 360 (С) 20000 м    9/9 600 м кучево-дожд. 
[Cb cap]
+9 +5.5 79 +10  1002.1  0.3  733  285           
00 20.06.18 020 (С) 20000 м    8/8 600 м кучево-дожд. 
[Cb cap]
+13.5 +6.4 62 +14  1001.7  -0.1  733  280  +6.7        влажная 
03 20.06.18 010 (С) 20000 м    8/8 600 м кучево-дожд. 
[Cb cap]
+16.4 +7.6 56 +17  1000.9  -0.4  733  277           
06 20.06.18 020 (С) 20000 м    8/8 600 м кучево-дожд. 
[Cb cap]
+19.1 +7.8 48 +20  999.9  -0.8  732  274           
09 20.06.18 070 (В) 20000 м    8/8 600 м кучево-дожд. 
[Cb cap]
+19.1 +8.1 49 +21  999.4  -0.5  732  274           
15 20.06.18 тихо ()   20000 м    4/4 600 м средняя, верхняя 
[Sc diur, vesp|Ac cuf|Ci fib]
+7.7 +6.8 94 +8  1001.3  0.2  732  286           
18 20.06.18 тихо ()   20000 м    3/3 1000 м 
[Sc diur, vesp]
+5 +4.4 96 +5  1001.1  -0.4  732  289           
21 20.06.18 тихо ()   20000 м    4/0 верхняя 
[Ci fib]
-4.3 -6.3 86 -4  1025.7  -0.1  749  307           
00 21.06.18 350 (С) 20000 м    3/0 верхняя 
[Ci fib]
+17.6 +9.2 58 +19  999.9  -0.4  732  275  +4.4        влажная 
03 21.06.18 320 (СЗ) 20000 м    3/3 1000 м 
[Cu hum]
+22 +8.8 43 +22  998  -1.6  731  271           
06 21.06.18 330 (СЗ) 20000 м    4/4 1000 м 
[Cu hum]
+24.2 +7.3 34 +24  996.2  -1.6  730  269           
09 21.06.18 350 (С) 3{12}  20000 м    9/8 600 м кучево-дожд., средняя 
[Cb cap|Ac trans]
+20.8 +9.9 50 +22  996.4  -0.1  730  271           
Время (UTC), дата Ветер
(°,м/с) 
Видим.   Явления Облачность Т
(°С)
Тd
(°С)
f(%) Тe
(°С)
Pmin
(гПа)
dP
(гПа)
Po
(мм)
O2
(г/м3)
Тmin Tmax R s Состояние
почвы

Для получения пояснительной информации подведите курсор к названию столбца.

ПОГОДА в Норске - архив

Всё, что Вы хотите узнать о погоде в Норске - удобно и подробно!

Выберите нужную дату (начиная с 1 января 2015* года) и нажмите кнопку "Найти".
Будут отображены архивные сводки погоды по пункту Норск, начиная с указанной даты.


Отображать данные в формате CSV (для использования в таблицах Excel)


Внимание! Наш архив погоды предназначен исключительно для личного некоммерческого использования в познавательных целях. Если Вам необходимы официальные справки о состоянии погоды (для производственных, юридических, коммерческих и т.п. целей), обращайтесь в органы Росгидромета.

*Примечание: данная дата относится к архиву по метеостанциям СССР (Россия, СНГ, Балтия).
Архив по метеостанциям Зарубежной Европы и Азии (кроме Китая) хранится 10 дней, по другим регионам земного шара (Китай, Африка, Америка, Австралия, Океания) - 1 день.

Норск - район местоположения метеостанции


Название, широта, долгота, высота метеостанции:
Норск 52.3°ш. 129.9°д. 208 м над ур. моря [Российская Федерация]

Дополнительная информация

В oтличие oт бoльшинства пoгoдных сайтoв мы публикуем пoдрoбную метеoинфoрмацию в детальнoм прoфессиoнальнoм фoрмате.

Характеристики температуры и влажнoсти вoздуха измеряются на высoте 2 м в тени вдали oт зданий и деревьев.
Скoрoсть ветра измеряется на высoте 10 м (на урoвне рoста челoвека скoрoсть ветра ниже в 1.5-2 раза). Если метеoстанция нахoдится в гoрoде или в лесу, тo скoрoсть ветра занижена на 2-4 м/с пo сравнению с oткрытым местoм. Скoрoсть ветра над акватoриями крупных рек и oзёр, а также на вершинах хoлмoв на 2-5 м/с выше, чем в oбычных услoвиях.
Атмoсфернoе давление в разных тoчках местнoсти мoжет значительнo oтличаться oт давления на метеoстанции, в зависимoсти oт услoвий рельефа (при пoдъёме на 10 м давление пoнижается примернo на 1 мм рт.ст.).